Location: Puketoi
(40.5833°S, 176.0167°E)
Time: 13:30:02
(UTC+00:00)

Cosmos 1072 Rocket - Pass Details

Date: 08 February 2023
Orbit: 949 x 1007 km, 82.9° (Epoch: 22 March)

Event Time Altitude Azimuth Distance (km) Brightness Sun altitude
Exits shadow 15:19:31 36° 347° (NNW) 1,557 5.1 -22.0°
Maximum altitude 15:22:24 82° 263° (W) 1,031 4.5 -21.6°
Drops below altitude 10° 15:28:55 10° 174° (S) 2,810 7.6 -20.7°
Sets 15:31:28 0° 173° (S) 3,761 8.3 -20.4°
